Location: Columbus
(35.2256°N, 82.1549°W)
Time: 23:42:24
(UTC-05:00)

Envisat - Pass Details

Date: 08 December 2021
Orbit: 764 x 766 km, 98.2° (Epoch: 25 January)

Event Time Altitude Azimuth Distance (km) Brightness Sun altitude
Rises 06:25:53 0° 356° (N) 3,236 6.0 -11.9°
Reaches altitude 10° 06:28:36 10° 343° (NNW) 2,306 5.1 -11.4°
Maximum altitude 06:32:31 23° 292° (WNW) 1,586 4.0 -10.6°
Drops below altitude 10° 06:36:25 10° 241° (WSW) 2,294 5.1 -9.9°
Sets 06:39:07 0° 227° (SW) 3,216 6.0 -9.3°
